TimeEDT,TemperatureF,Dew PointF,Humidity,Sea Level PressureIn,VisibilityMPH,Wind Direction,Wind SpeedMPH,Gust SpeedMPH,PrecipitationIn,Events,Conditions,WindDirDegrees,DateUTC
12:15 AM,73.4,73.4,100,29.81,5.0,South,3.5,-,N/A,,Clear,180,2013-09-26 04:15:00
12:35 AM,73.4,73.4,100,29.81,5.0,Calm,Calm,-,0.01,,Clear,0,2013-09-26 04:35:00
12:55 AM,73.4,73.4,100,29.81,5.0,Calm,Calm,-,0.01,,Scattered Clouds,0,2013-09-26 04:55:00
1:15 AM,73.4,73.4,100,29.80,5.0,South,5.8,-,N/A,,Overcast,190,2013-09-26 05:15:00
1:35 AM,73.4,73.4,100,29.80,5.0,South,3.5,-,N/A,,Overcast,170,2013-09-26 05:35:00
1:55 AM,73.4,73.4,100,29.80,5.0,Calm,Calm,-,N/A,,Overcast,0,2013-09-26 05:55:00
2:15 AM,75.2,73.4,94,29.80,5.0,Calm,Calm,-,N/A,,Overcast,0,2013-09-26 06:15:00
2:35 AM,73.4,73.4,100,29.80,5.0,Calm,Calm,-,N/A,,Overcast,0,2013-09-26 06:35:00
2:55 AM,75.2,75.2,100,29.80,5.0,Calm,Calm,-,N/A,,Overcast,0,2013-09-26 06:55:00
3:15 AM,75.2,75.2,100,29.79,5.0,Calm,Calm,-,N/A,,Overcast,0,2013-09-26 07:15:00
3:35 AM,73.4,73.4,100,29.79,3.0,Calm,Calm,-,N/A,,Mostly Cloudy,0,2013-09-26 07:35:00
3:55 AM,75.2,73.4,94,29.79,4.0,Calm,Calm,-,N/A,,Mostly Cloudy,0,2013-09-26 07:55:00
4:15 AM,75.2,73.4,94,29.79,5.0,Calm,Calm,-,N/A,,Mostly Cloudy,0,2013-09-26 08:15:00
4:35 AM,75.2,73.4,94,29.79,5.0,Calm,Calm,-,N/A,,Mostly Cloudy,0,2013-09-26 08:35:00
4:55 AM,73.4,73.4,100,29.79,7.0,Calm,Calm,-,N/A,,Scattered Clouds,0,2013-09-26 08:55:00
5:15 AM,73.4,73.4,100,29.79,7.0,Calm,Calm,-,N/A,,Mostly Cloudy,0,2013-09-26 09:15:00
5:35 AM,73.4,73.4,100,29.79,4.0,Calm,Calm,-,N/A,,Mostly Cloudy,0,2013-09-26 09:35:00
5:55 AM,75.2,73.4,94,29.80,7.0,Calm,Calm,-,N/A,,Mostly Cloudy,0,2013-09-26 09:55:00
6:15 AM,75.2,73.4,94,29.80,7.0,Calm,Calm,-,N/A,,Overcast,0,2013-09-26 10:15:00
6:35 AM,75.2,73.4,94,29.81,5.0,Calm,Calm,-,N/A,,Overcast,0,2013-09-26 10:35:00
6:55 AM,75.2,73.4,94,29.81,10.0,Calm,Calm,-,N/A,Rain,Rain,0,2013-09-26 10:55:00
7:15 AM,75.2,73.4,94,29.82,7.0,Calm,Calm,-,0.01,,Mostly Cloudy,0,2013-09-26 11:15:00
7:35 AM,75.2,73.4,94,29.82,5.0,Calm,Calm,-,0.01,,Mostly Cloudy,0,2013-09-26 11:35:00
7:55 AM,75.2,75.2,100,29.82,7.0,Calm,Calm,-,0.01,,Overcast,0,2013-09-26 11:55:00
8:15 AM,77.0,75.2,94,29.83,7.0,Calm,Calm,-,N/A,,Overcast,0,2013-09-26 12:15:00
8:35 AM,77.0,77.0,100,29.84,7.0,Calm,Calm,-,N/A,,Mostly Cloudy,0,2013-09-26 12:35:00
8:55 AM,77.0,77.0,100,29.84,7.0,Calm,Calm,-,N/A,,Mostly Cloudy,0,2013-09-26 12:55:00
9:15 AM,78.8,77.0,94,29.84,7.0,Calm,Calm,-,N/A,,Mostly Cloudy,0,2013-09-26 13:15:00
9:35 AM,80.6,77.0,89,29.85,7.0,Calm,Calm,-,N/A,,Clear,0,2013-09-26 13:35:00
9:55 AM,80.6,77.0,89,29.85,10.0,NW,5.8,-,N/A,,Mostly Cloudy,310,2013-09-26 13:55:00
10:15 AM,82.4,77.0,84,29.86,7.0,NW,4.6,-,N/A,,Mostly Cloudy,320,2013-09-26 14:15:00
10:35 AM,84.2,73.4,70,29.86,10.0,WNW,4.6,-,N/A,,Scattered Clouds,290,2013-09-26 14:35:00
10:55 AM,84.2,73.4,70,29.86,7.0,NW,3.5,-,N/A,,Scattered Clouds,320,2013-09-26 14:55:00
11:15 AM,86.0,71.6,62,29.87,10.0,NW,4.6,-,N/A,,Scattered Clouds,310,2013-09-26 15:15:00
11:35 AM,84.2,71.6,66,29.87,10.0,NW,6.9,-,N/A,,Mostly Cloudy,320,2013-09-26 15:35:00
11:55 AM,86.0,71.6,62,29.87,10.0,WNW,3.5,-,N/A,,Overcast,300,2013-09-26 15:55:00
12:15 PM,86.0,71.6,62,29.86,10.0,NNW,4.6,-,N/A,,Overcast,330,2013-09-26 16:15:00
12:35 PM,87.8,69.8,55,29.86,10.0,WNW,3.5,-,N/A,,Mostly Cloudy,290,2013-09-26 16:35:00
12:55 PM,86.0,68.0,55,29.85,10.0,WNW,4.6,-,0.01,,Overcast,300,2013-09-26 16:55:00
1:15 PM,87.8,69.8,55,29.85,5.0,WNW,5.8,-,N/A,,Haze,290,2013-09-26 17:15:00
1:35 PM,87.8,68.0,52,29.84,10.0,NW,4.6,-,N/A,,Mostly Cloudy,310,2013-09-26 17:35:00
1:55 PM,87.8,66.2,49,29.84,7.0,WNW,5.8,-,N/A,,Overcast,300,2013-09-26 17:55:00
2:15 PM,87.8,64.4,46,29.83,7.0,NNW,8.1,16.1,N/A,,Mostly Cloudy,340,2013-09-26 18:15:00
2:35 PM,87.8,62.6,43,29.83,10.0,NNW,5.8,-,N/A,,Clear,330,2013-09-26 18:35:00
2:55 PM,87.8,62.6,43,29.82,10.0,NW,6.9,-,N/A,,Clear,310,2013-09-26 18:55:00
3:15 PM,87.8,62.6,43,29.82,10.0,NNW,4.6,-,N/A,,Clear,340,2013-09-26 19:15:00
3:35 PM,89.6,64.4,43,29.82,10.0,North,5.8,-,N/A,,Clear,350,2013-09-26 19:35:00
3:55 PM,87.8,64.4,46,29.81,7.0,NNW,4.6,-,N/A,,Clear,330,2013-09-26 19:55:00
4:15 PM,87.8,64.4,46,29.81,10.0,Calm,Calm,-,N/A,,Clear,0,2013-09-26 20:15:00
4:35 PM,86.0,64.4,48,29.81,7.0,NW,4.6,-,N/A,,Clear,310,2013-09-26 20:35:00
4:55 PM,84.2,68.0,58,29.82,10.0,Calm,Calm,-,N/A,,Clear,0,2013-09-26 20:55:00
5:15 PM,82.4,66.2,58,29.82,10.0,NNW,5.8,-,N/A,,Clear,340,2013-09-26 21:15:00
5:35 PM,86.0,68.0,55,29.82,7.0,Calm,Calm,-,N/A,,Clear,0,2013-09-26 21:35:00
5:55 PM,84.2,69.8,62,29.82,10.0,Calm,Calm,-,N/A,,Scattered Clouds,0,2013-09-26 21:55:00
6:15 PM,82.4,69.8,66,29.83,10.0,Calm,Calm,-,N/A,,Scattered Clouds,0,2013-09-26 22:15:00
6:35 PM,82.4,68.0,62,29.83,10.0,NNW,3.5,-,N/A,,Clear,340,2013-09-26 22:35:00
6:55 PM,82.4,69.8,66,29.84,10.0,North,10.4,-,N/A,,Scattered Clouds,360,2013-09-26 22:55:00
7:15 PM,80.6,69.8,70,29.85,10.0,North,9.2,-,N/A,,Mostly Cloudy,10,2013-09-26 23:15:00
7:35 PM,80.6,69.8,70,29.86,10.0,North,11.5,-,N/A,,Scattered Clouds,360,2013-09-26 23:35:00
7:55 PM,78.8,69.8,74,29.87,10.0,North,10.4,-,N/A,,Scattered Clouds,360,2013-09-26 23:55:00
8:15 PM,77.0,69.8,78,29.88,7.0,North,12.7,17.3,N/A,,Scattered Clouds,360,2013-09-27 00:15:00
8:35 PM,77.0,69.8,78,29.88,7.0,North,6.9,-,N/A,,Clear,360,2013-09-27 00:35:00
8:55 PM,75.2,69.8,83,29.89,10.0,North,5.8,-,N/A,,Clear,10,2013-09-27 00:55:00
9:15 PM,73.4,69.8,88,29.90,10.0,North,6.9,-,N/A,,Clear,10,2013-09-27 01:15:00
9:35 PM,73.4,69.8,88,29.91,10.0,North,6.9,-,N/A,,Clear,10,2013-09-27 01:35:00
9:55 PM,73.4,68.0,83,29.91,10.0,North,4.6,-,N/A,,Clear,10,2013-09-27 01:55:00
10:15 PM,71.6,69.8,94,29.91,7.0,North,4.6,-,N/A,,Clear,10,2013-09-27 02:15:00
10:35 PM,71.6,68.0,88,29.91,7.0,North,5.8,-,0.01,,Clear,10,2013-09-27 02:35:00
10:55 PM,71.6,69.8,94,29.91,7.0,North,3.5,-,0.01,,Clear,10,2013-09-27 02:55:00
11:15 PM,71.6,69.8,94,29.92,7.0,North,5.8,-,N/A,,Scattered Clouds,10,2013-09-27 03:15:00
11:35 PM,71.6,68.0,88,29.92,10.0,North,4.6,-,N/A,,Scattered Clouds,10,2013-09-27 03:35:00
11:55 PM,69.8,68.0,94,29.91,7.0,Calm,Calm,-,N/A,,Clear,0,2013-09-27 03:55:00